Regional Weather Roundup
Issued by NWS Goodland, KS

Home | Current Version | Previous Version | Graphics & Text | Print | Product List | Glossary On
Versions: 1 2 3 4 5 6 7 8 9 10 11 12 13 14 15 16 17 18 19 20 21 22 23 24 25 26 27 28 29 30 31 32 33 34 35 36 37 38 39 40 41 42 43 44 45 46 47 48 49 50
305
ASUS43 KGLD 291808
RWRGLD

GOODLAND FORECAST AREA HOURLY WEATHER ROUNDUP
NATIONAL WEATHER SERVICE GOODLAND KS
1200 PM MDT WED MAR 29 2017

...OFFICIAL OBSERVATIONS...

CITY           SKY/WX    TMP DP  RH WIND       PRES   REMARKS
GOODLAND KS    CLOUDY    41  39  93 N26G33    29.94F
HILL CITY KS   LGT RAIN  45  43  93 N24G35    29.88F FOG
IMPERIAL NEB   CLOUDY    46  39  76 N20G28    30.00F
MCCOOK NEB     CLOUDY    45  42  89 N23       29.94F
AKRON CO       CLOUDY    42  38  85 N15       30.04F
BURLINGTON CO  CLOUDY    41  39  93 N25G33    29.97F
LIMON CO       CLOUDY    37  36  96 N23G33    30.03F
$$

...UNOFFICIAL OBSERVATIONS...

CITY           SKY/WX    TMP DP  RH WIND       PRES   REMARKS
NORTON KS      LGT RAIN  43  37  81 N21G29    29.89S
SHARON SPRINGS   N/A     41  39  94 N15G29      N/A
TRENTON NEB      N/A     43  32  65 N14         N/A
KIT CARSON CO    N/A     40  37  88 MISG        N/A
YUMA CO        CLOUDY    41  36  81 N17       30.03F
$$




USA.gov is the U.S. government's official web portal to all federal, state and local government web resources and services.